Regional Weather Roundup
Issued by NWS

Home | Current Version | Previous Version | Text Only | Print | Product List | Glossary Off
Versions: 1 2 3 4 5 6 7 8 9 10 11 12 13 14 15 16 17 18 19 20 21 22 23 24 25 26 27 28 29 30 31 32 33 34 35 36 37 38 39 40 41 42 43 44 45 46 47 48 49 50

000
ASUS45 KSLC 210810
RWRUT

UTAH REGIONAL WEATHER ROUNDUP
NATIONAL WEATHER SERVICE SALT LAKE CITY UT
200 AM MDT MON JUL 21 2014

UTZ001>011-023>025-210900-

NORTHERN UTAH

CITY           SKY/WX    TMP DP  RH WIND       PRES   REMARKS
HILL AFB       MOCLDY    72  50  45 SE9       30.05R
LOGAN          CLEAR     66  49  54 E6        30.00F
OGDEN          MOCLDY    73  50  44 E10       30.01R
PROVO AIRPORT  CLEAR     64  54  68 CALM      30.07R
SALT LAKE CITY PTCLDY    72  53  51 MISG      30.00R
VERNAL         CLEAR     61  32  33 W6        30.13S
WENDOVER       PTCLDY    70  52  52 W9        29.99R
HEBER CITY     CLEAR     54  48  82 CALM      30.15S
WEST JORDAN    CLEAR     72  59  64 S12       30.03S

$$

UTZ012>022-026-027-210900-

SOUTHERN UTAH

CITY           SKY/WX    TMP DP  RH WIND       PRES   REMARKS
BRYCE CANYON   CLEAR     46  31  55 CALM      30.35R
CEDAR CITY     CLEAR     65  27  23 SW7       30.18S
MILFORD        CLEAR     69  30  23 S9        30.11S
MOAB/CYNLANDS  CLEAR     70  36  28 CALM      30.03R
PRICE          MOCLDY    66  36  32 NE5       30.16R
ST GEORGE      SUNNY     84  36  17 SW8       30.01S
KANAB            N/A     63  34  34 CALM      30.20R

$$

REGIONAL REPORTS     COLORADO/ARIZONA

CITY           SKY/WX    TMP DP  RH WIND       PRES   REMARKS
CRAIG, CO      CLEAR     49  48  97 SE6       30.22R
GRAND JUNCTION CLEAR     73  45  36 E8        30.09R
RIFLE          PTCLDY    63  45  51 CALM      30.18R
MONTROSE       PTCLDY    68  46  45 SE9       30.20R
CORTEZ         CLEAR     60  38  43 NE7       30.21S
PAGE, AZ       CLEAR     80  33  18 CALM      30.09R
GRAND CANYON   CLEAR     49  35  58 NE5       30.32R
KINGMAN        CLEAR     74  39  28 SE12      30.06S
FLAGSTAFF      CLEAR     55  35  47 CALM      30.35S

$$

REGIONAL REPORTS    NEVADA/IDAHO/WYOMING

CITY           SKY/WX    TMP DP  RH WIND       PRES   REMARKS
LAS VEGAS, NV  CLEAR     89  37  16 S9        29.88R
ELY            PTCLDY    64  24  21 S9        30.17R
ELKO           PTCLDY    61  50  67 VRB3      30.08S
POCATELLO, ID  LGT RAIN  74  48  39 W13       30.01R
BURLEY         MOCLDY    72  50  45 W10       29.99R
EVANSTON, WY   PTCLDY    56  48  74 SE6       30.22S
ROCK SPRINGS   PTCLDY    60  42  51 SW5       30.20F

$$


USA.gov is the U.S. government's official web portal to all federal, state and local government web resources and services.